Hourly Data Report for October 22, 2013

All times are specified in Local Standard Time (LST). Add 1 hour to adjust for Daylight Saving Time where and when it is observed.

KUGAARUK CLIMATE
NUNAVUT

68°32'15.060" N
89°47'47.020" W
15.80 m
2303094
71407
NBB

Download Data

Hourly Data (October 2013)
Hourly Data Report for October 22, 2013
Temp Definition
°C
Dew Point Temp Definition
°C
Rel Hum Definition
%
Wind Dir Definition
10's deg

Wind Spd Definition
km/h
Visibility Definition
km
Stn Press Definition
kPa
Hmdx Definition


Wind Chill Definition


Weather Definition


TIME
00:00 -11.8 -13.2 89   0   102.00     LegendNANA
01:00 -10.2 -11.3 92   0   101.97     LegendNANA
02:00 -9.9 -11.0 92   0   101.95     LegendNANA
03:00 -9.0 -10.0 92   0   101.93     LegendNANA
04:00 -8.7 -9.7 92   0   101.90     LegendNANA
05:00 -7.3 -8.2 93   0   101.88     LegendNANA
06:00 -6.4 -7.2 94   0   101.84     LegendNANA
07:00 -6.8 -7.7 93   0   101.84     LegendNANA
08:00 -6.8 -7.7 93   0   101.82     LegendNANA
09:00 -5.9 -6.7 94   0   101.79     LegendNANA
10:00 -5.6 -6.4 94   0   101.78     LegendNANA
11:00 -5.5 -6.4 93   0   101.76     LegendNANA
12:00 -5.3 -6.2 93   0   101.74     LegendNANA
13:00 -5.5 -6.5 93   0   101.74     LegendNANA
14:00 -5.3 -6.2 93 6 15   101.73   -11 LegendNANA
15:00 -5.4 -6.3 93 6 11   101.73   -10 LegendNANA
16:00 -5.6 -6.5 93 5 15   101.74   -11 LegendNANA
17:00 -5.7 -6.7 93 4 11   101.73   -10 LegendNANA
18:00 -5.7 -6.8 92 7 6   101.73   -9 LegendNANA
19:00 -6.8 -7.9 92 6 11   101.67   -12 LegendNANA
20:00 -7.1 -8.1 93 5 9   101.70   -11 LegendNANA
21:00 -6.6 -7.6 93 6 11   101.69   -12 LegendNANA
22:00 -6.9 -8.0 92 7 9   101.65   -11 LegendNANA
23:00 -7.8 -9.1 90 7 11   101.67   -13 LegendNANA

Notes on Data Quality.

Legend

  • E = Estimated
  • M = Missing
  • NA = Not Available
  • ‡ = Partner data that is not subject to review by the National Climate Archives
Date modified: